Date String (YYYY-MM-DD hh:mm:ss) UTC,Instrument flags,Ambient pressure (hPa),Sample flow (lpm),Bypass flow (lpm),Sample temperature (°C),Ambient temperature (°C),ASC tube jacket temperature (°C),LED temperature (°C),Box temperature (°C),Sample RH (%),Span deviation,Mass concentration (μg/m³),Mass concentration (μg/m³),Mass concentration (μg/m³)
DateTimeUTC,F1_M11,P_M11,Q1_M11,Q2_M11,T1_M11,T2_M11,T3_M11,T4_M11,T5_M11,U1_M11,ZSPAN_M11,X2_M11,X0_M11,X1_M11
2022-11-05 11:00:00,,0812.1,4.98,0.00,22.6,21.1,00.0,31.4,24.3,14.2,0000.0,0000.73,0002.56,0000.39
2022-11-05 11:01:00,,0812.1,5.01,0.00,22.5,21.0,00.0,31.4,24.3,14.1,0000.0,0000.75,0002.59,0000.39
2022-11-05 11:02:00,,0812.2,5.01,0.00,22.5,20.9,00.0,31.4,24.3,14.1,0000.0,0000.74,0002.61,0000.39
2022-11-05 11:03:00,,0812.4,4.99,0.00,22.5,20.9,00.0,31.4,24.2,14.3,0000.0,0000.69,0002.53,0000.40
2022-11-05 11:04:00,,0812.3,5.00,0.00,22.4,20.8,00.0,31.4,24.2,14.3,0000.0,0000.68,0002.40,0000.41
2022-11-05 11:05:00,,0812.4,5.00,0.00,22.4,20.8,00.0,31.4,24.1,14.4,0000.0,0000.68,0002.18,0000.41
2022-11-05 11:06:00,,0812.5,5.00,0.00,22.4,20.7,00.0,31.4,24.1,14.3,0000.0,0000.69,0001.85,0000.41
2022-11-05 11:07:00,,0812.4,5.00,0.00,22.3,20.6,00.0,31.4,24.0,14.4,0000.0,0000.71,0002.06,0000.41
2022-11-05 11:08:00,,0812.5,5.00,0.00,22.3,20.6,00.0,31.3,24.0,14.3,0000.0,0000.72,0003.18,0000.41
2022-11-05 11:09:00,,0812.4,5.00,0.00,22.3,20.6,00.0,31.3,24.0,14.4,0000.0,0000.68,0003.14,0000.40
2022-11-05 11:10:00,,0812.4,5.01,0.00,22.2,20.5,00.0,31.3,23.9,14.4,0000.0,0000.64,0003.07,0000.41
2022-11-05 11:11:00,,0812.5,5.00,0.00,22.2,20.5,00.0,31.3,23.9,14.6,0000.0,0000.65,0003.19,0000.41
2022-11-05 11:12:00,,0812.5,4.99,0.00,22.2,20.5,00.0,31.3,23.9,14.4,0000.0,0000.66,0003.20,0000.41
2022-11-05 11:13:00,,0812.4,5.00,0.00,22.2,21.4,00.0,31.2,24.1,14.4,0000.0,0000.65,0003.21,0000.41
2022-11-05 11:14:00,,0812.4,5.01,0.00,22.4,22.3,00.0,31.2,24.4,14.6,0000.0,0000.66,0003.27,0000.41
2022-11-05 11:15:00,,0812.4,5.00,0.00,22.4,22.2,00.0,31.2,24.4,14.2,0000.0,0000.69,0003.35,0000.41
2022-11-05 11:16:00,,0812.4,4.98,0.00,22.4,21.7,00.0,31.2,24.3,14.2,0000.0,0000.67,0003.27,0000.41
2022-11-05 11:17:00,,0812.4,5.00,0.00,22.4,21.2,00.0,31.2,24.2,14.2,0000.0,0000.69,0003.15,0000.42
2022-11-05 11:18:00,,0812.4,5.00,0.00,22.3,20.9,00.0,31.2,24.1,14.3,0000.0,0000.72,0003.02,0000.44
2022-11-05 11:19:00,,0812.4,5.00,0.00,22.3,20.7,00.0,31.2,24.0,14.3,0000.0,0000.76,0001.77,0000.45
2022-11-05 11:20:00,,0812.4,5.00,0.00,22.2,20.6,00.0,31.2,24.0,14.3,0000.0,0000.79,0001.74,0000.48
2022-11-05 11:21:00,,0812.4,5.00,0.00,22.2,20.5,00.0,31.2,23.9,14.4,0000.0,0000.83,0001.84,0000.51
2022-11-05 11:22:00,,0812.3,5.00,0.00,22.2,20.4,00.0,31.1,23.8,14.5,0000.0,0000.85,0001.82,0000.53
2022-11-05 11:23:00,,0812.2,5.00,0.00,22.1,20.3,00.0,31.1,23.8,14.6,0000.0,0000.89,0001.90,0000.54
2022-11-05 11:24:00,,0812.2,5.00,0.00,22.1,20.3,00.0,31.1,23.8,14.4,0000.0,0000.92,0002.06,0000.55
2022-11-05 11:25:00,,0812.2,5.00,0.00,22.1,20.2,00.0,31.1,23.8,14.5,0000.0,0000.94,0002.08,0000.56
2022-11-05 11:26:00,,0812.1,5.00,0.00,22.0,20.2,00.0,31.0,23.7,14.6,0000.0,0000.96,0002.09,0000.56
2022-11-05 11:27:00,,0812.2,5.00,0.00,22.0,20.2,00.0,31.0,23.7,14.8,0000.0,0001.01,0002.80,0000.57
2022-11-05 11:28:00,,0812.3,5.00,0.00,22.0,20.3,00.0,31.0,23.7,14.9,0000.0,0001.04,0003.16,0000.59
2022-11-05 11:29:00,,0812.2,5.00,0.00,22.0,20.4,00.0,31.0,23.8,15.0,0000.0,0001.03,0003.56,0000.59
2022-11-05 11:30:00,,0812.1,5.01,0.00,22.0,20.5,00.0,31.0,23.8,14.9,0000.0,0001.03,0003.78,0000.59
2022-11-05 11:31:00,,0812.1,4.98,0.00,22.0,20.6,00.0,31.0,23.9,14.6,0000.0,0000.98,0003.68,0000.57
2022-11-05 11:32:00,,0812.1,5.01,0.00,22.0,20.7,00.0,31.0,23.9,14.7,0000.0,0001.04,0003.81,0000.61
2022-11-05 11:33:00,,0812.0,5.00,0.00,22.1,20.7,00.0,30.9,23.9,14.5,0000.0,0001.15,0004.86,0000.70
2022-11-05 11:34:00,,0812.1,5.01,0.00,22.1,20.8,00.0,30.9,23.9,14.4,0000.0,0001.27,0005.16,0000.80
2022-11-05 11:35:00,,0812.1,5.00,0.00,22.1,20.8,00.0,30.9,24.0,14.5,0000.0,0001.31,0005.09,0000.87
2022-11-05 11:36:00,,0812.2,4.99,0.00,22.1,20.8,00.0,30.9,24.0,14.3,0000.0,0001.45,0005.19,0000.98
2022-11-05 11:37:00,,0812.2,5.00,0.00,22.1,20.8,00.0,30.9,24.0,14.3,0000.0,0001.64,0005.46,0001.11
2022-11-05 11:38:00,,0812.2,5.01,0.00,22.1,20.9,00.0,30.9,24.0,14.2,0000.0,0001.84,0005.39,0001.27
2022-11-05 11:39:00,,0812.2,5.00,0.00,22.1,20.9,00.0,30.9,24.0,14.2,0000.0,0002.03,0005.23,0001.47
2022-11-05 11:40:00,,0812.3,5.00,0.00,22.1,20.9,00.0,30.9,24.0,14.0,0000.0,0002.40,0005.14,0001.80
2022-11-05 11:41:00,,0812.4,4.99,0.00,22.1,20.8,00.0,30.9,24.0,14.0,0000.0,0002.82,0005.69,0002.12
2022-11-05 11:42:00,,0812.5,5.01,0.00,22.2,20.9,00.0,31.0,24.0,14.1,0000.0,0003.11,0007.31,0002.38
2022-11-05 11:43:00,,0812.5,5.00,0.00,22.2,20.9,00.0,31.0,24.0,14.0,0000.0,0003.29,0007.77,0002.64
2022-11-05 11:44:00,,0812.5,4.98,0.00,22.2,20.9,00.0,31.0,24.1,13.9,0000.0,0003.37,0007.51,0002.80
2022-11-05 11:45:00,,0812.4,5.00,0.00,22.2,20.9,00.0,31.0,24.1,13.9,0000.0,0003.46,0007.39,0002.94
2022-11-05 11:46:00,,0812.5,5.01,0.00,22.2,20.9,00.0,31.0,24.1,14.0,0000.0,0003.67,0007.72,0003.16
2022-11-05 11:47:00,,0812.5,5.00,0.00,22.2,20.9,00.0,31.0,24.1,14.1,0000.0,0003.80,0007.84,0003.29
2022-11-05 11:48:00,,0812.6,4.98,0.00,22.2,21.0,00.0,31.0,24.1,14.1,0000.0,0003.93,0007.98,0003.43
2022-11-05 11:49:00,,0812.7,5.02,0.00,22.3,21.8,00.0,30.9,24.3,14.0,0000.0,0004.07,0008.16,0003.58
2022-11-05 11:50:00,,0812.5,4.99,0.00,22.4,22.6,00.0,31.0,24.5,13.9,0000.0,0004.20,0008.77,0003.68
2022-11-05 11:51:00,,0812.4,4.99,0.00,22.5,22.4,00.0,31.0,24.6,13.9,0000.0,0004.16,0008.86,0003.63
2022-11-05 11:52:00,,0812.4,5.00,0.00,22.5,22.1,00.0,31.1,24.6,14.0,0000.0,0004.03,0008.65,0003.53
2022-11-05 11:53:00,,0812.4,5.02,0.00,22.5,21.9,00.0,31.1,24.5,14.3,0000.0,0003.89,0008.10,0003.44
2022-11-05 11:54:00,,0812.4,4.98,0.00,22.5,21.7,00.0,31.1,24.5,14.3,0000.0,0003.73,0008.04,0003.28
2022-11-05 11:55:00,,0812.3,5.00,0.00,22.5,21.6,00.0,31.2,24.4,14.4,0000.0,0003.59,0008.06,0003.17
2022-11-05 11:56:00,,0812.3,5.00,0.00,22.5,21.5,00.0,31.2,24.4,14.5,0000.0,0003.43,0007.84,0002.96
2022-11-05 11:57:00,,0812.3,5.01,0.00,22.5,21.3,00.0,31.2,24.4,14.6,0000.0,0003.20,0007.81,0002.63
2022-11-05 11:58:00,,0812.3,5.00,0.00,22.5,21.2,00.0,31.2,24.3,14.5,0000.0,0002.88,0007.57,0002.27
2022-11-05 11:59:00,,0812.3,5.01,0.00,22.5,21.1,00.0,31.2,24.3,14.6,0000.0,0002.45,0007.29,0001.89
